Theta_e
300 301 302 302 303 303 303 303 303 302 301 300 299 298 299 298 297 297 297 297 296 296 295 294 294 295 295 295 295 295 295 294 294 293 292 291 290 289 289 289 287 286 286 286 285 285 285 285 285 284 284 284 283 283 283 282 282 282 281 281 281 281
300 301 301 302 303 303 303 302 302 301 301 299 299 298 298 297 297 296 296 296 296 296 295 294 294 294 294 295 294 294 294 294 294 293 291 290 289 288 288 287 286 285 285 285 285 284 284 284 284 284 283 283 283 282 282 282 281 281 281 280 281 281
299 299 299 300 300 301 302 302 301 301 301 300 298 298 297 296 296 296 296 295 296 295 295 294 292 292 294 294 294 294 294 294 293 292 291 289 288 287 286 286 285 285 285 284 284 284 284 284 283 283 283 282 282 281 281 281 281 280 279 280 279 279
298 298 300 298 300 301 301 302 301 301 300 300 298 298 297 296 296 296 296 295 296 295 295 294 292 292 292 292 292 292 292 292 292 290 288 287 286 286 286 285 285 284 284 284 283 283 283 283 283 282 282 281 281 281 282 280 280 279 278 278 278 278
297 298 299 300 301 300 300 300 301 301 300 299 298 298 297 297 297 296 296 295 295 295 294 293 291 290 290 290 291 290 290 291 289 288 288 286 285 285 285 284 284 284 283 283 283 283 282 282 282 282 281 281 281 280 280 280 279 279 278 278 277 277
295 296 297 298 299 299 300 300 300 300 300 299 298 297 297 297 296 295 295 294 293 294 293 292 291 289 289 289 290 290 290 290 289 288 288 286 285 285 284 284 284 283 283 283 282 282 282 282 281 281 280 281 280 280 279 278 278 278 278 278 278 278
294 295 296 298 299 299 300 300 300 300 299 298 297 297 297 297 295 294 294 293 292 291 292 291 291 290 289 289 290 290 290 290 289 288 287 286 285 284 283 283 283 283 283 283 282 282 281 281 281 280 280 280 280 280 279 279 278 278 278 278 279 280
294 294 295 296 297 299 299 299 299 299 299 299 298 297 296 296 294 294 293 292 292 291 291 291 290 290 290 290 290 290 290 289 288 287 287 286 285 284 283 284 283 283 282 282 282 282 281 281 281 281 280 280 280 279 279 278 278 278 278 278 278 279
295 296 295 296 296 297 298 299 299 299 299 298 297 297 296 295 293 292 292 292 292 291 291 291 291 290 290 289 290 290 289 289 288 287 287 286 285 284 283 283 283 282 282 282 281 281 281 281 280 280 280 280 280 279 278 278 278 278 278 278 278 278
295 295 295 295 295 295 296 298 299 299 299 298 297 295 295 295 292 291 292 291 291 291 291 291 291 290 290 289 289 289 289 288 288 287 287 286 285 284 283 283 282 281 281 281 281 281 281 280 280 280 280 280 280 279 279 279 278 278 277 277 277 278
296 295 294 294 294 294 295 296 297 297 297 297 296 294 294 293 292 291 291 291 291 292 291 290 290 289 289 288 288 287 288 288 287 287 286 286 285 285 283 283 282 281 281 281 281 281 281 281 281 280 280 280 279 279 279 278 278 278 278 278 278 278
297 296 295 294 294 295 295 295 296 297 298 297 296 294 294 292 292 291 291 291 291 291 290 290 289 288 288 288 288 287 287 287 287 286 286 285 285 284 283 282 282 281 281 281 281 281 281 281 281 282 284 284 280 279 279 279 279 279 278 278 278 277
297 296 295 295 295 295 295 296 296 296 296 296 295 295 294 293 292 291 291 291 291 290 289 289 288 288 287 288 288 287 287 286 286 285 285 285 284 283 283 283 282 281 281 281 281 280 281 281 281 284 287 286 285 280 279 278 278 279 278 278 277 277
297 297 297 296 295 295 295 295 295 294 295 296 295 295 293 293 292 291 291 291 290 290 289 289 288 287 287 287 287 287 287 286 286 285 285 285 284 283 283 282 282 282 281 281 280 280 280 280 283 287 288 287 286 284 280 279 279 279 278 278 278 277
298 299 298 297 297 296 295 295 294 294 295 295 295 293 292 292 292 292 291 291 290 290 290 288 287 287 287 287 287 287 286 286 286 285 285 285 284 284 283 282 282 282 281 281 280 280 280 279 285 288 289 288 287 285 282 280 279 279 278 278 278 278
298 297 296 297 297 297 296 294 294 295 293 293 292 293 293 292 292 291 291 291 290 290 290 289 287 287 286 286 286 286 286 286 285 286 285 285 285 284 283 282 282 282 281 281 280 280 279 278 284 289 289 288 288 286 283 279 279 279 279 278 278 278
295 293 292 293 294 293 291 290 292 290 290 292 293 293 293 292 291 291 291 291 290 290 289 289 288 287 286 286 285 285 286 286 286 285 285 285 284 284 283 283 282 282 282 281 281 280 279 279 285 288 289 288 288 287 284 279 279 279 278 278 278 278
295 294 294 293 293 292 291 292 291 291 292 291 292 292 292 291 290 290 290 290 290 290 290 289 288 287 286 286 285 285 285 286 285 285 285 285 284 284 284 283 283 282 282 281 281 280 279 279 286 288 288 288 288 287 281 279 279 279 278 278 278 278
294 293 292 292 291 291 290 289 290 291 289 290 291 291 291 290 290 290 290 289 289 289 289 289 288 287 286 286 285 285 286 285 285 285 285 284 284 284 283 283 282 282 282 281 280 280 279 279 284 287 287 288 288 285 279 279 279 279 278 278 278 278
290 289 290 290 290 289 289 288 289 289 289 290 289 289 290 290 290 290 289 289 289 289 289 288 288 288 287 286 286 285 285 286 286 285 285 284 284 283 283 283 282 282 282 281 280 280 280 279 282 287 288 288 288 283 279 279 279 278 278 278 278 278
289 289 288 287 290 289 289 287 288 289 289 289 288 289 289 289 290 290 289 289 289 289 288 288 288 288 287 287 286 286 285 285 285 285 285 284 284 283 283 283 282 282 281 281 281 281 280 279 281 286 287 287 287 283 280 279 278 278 278 277 277 278
287 288 288 287 289 287 288 286 286 288 289 288 287 288 289 290 290 289 289 288 288 288 288 287 287 287 287 287 286 285 285 284 284 284 284 284 284 283 283 282 282 281 281 281 280 280 280 279 279 284 286 287 287 285 281 280 278 278 278 278 278 277
286 287 288 288 288 287 286 286 286 287 288 287 286 288 289 288 286 287 287 287 287 287 287 287 287 287 286 286 285 284 283 283 283 283 283 283 283 283 282 282 281 281 280 280 279 279 279 279 279 283 286 286 287 286 283 280 280 280 279 278 278 277
285 286 286 286 286 286 285 285 287 287 286 285 287 289 286 286 286 286 286 286 287 286 286 286 286 286 286 285 284 283 282 282 283 283 282 282 282 282 282 281 281 280 279 279 278 279 278 279 280 281 285 286 287 286 285 282 281 282 280 279 278 278
286 286 286 286 285 285 285 285 286 286 285 286 287 287 286 285 285 285 286 285 285 285 285 285 285 286 285 284 284 283 282 282 282 282 283 282 282 281 281 280 280 279 278 278 277 278 278 278 279 282 283 285 286 287 286 285 283 284 282 281 279 279
285 286 286 286 285 284 284 286 286 285 285 286 285 284 284 283 283 284 284 284 284 284 284 284 285 285 285 284 284 283 282 281 282 282 282 282 281 281 280 280 279 279 277 277 276 277 277 278 278 281 283 284 286 286 287 286 286 285 282 282 280 280
286 285 285 285 284 284 284 283 285 284 284 285 284 282 283 282 282 284 284 283 283 283 283 283 283 283 283 283 283 282 281 280 280 281 282 281 281 280 279 279 279 278 278 277 276 276 276 276 277 278 281 283 284 286 286 287 287 286 285 282 281 280
284 284 285 286 284 284 283 283 284 284 284 284 283 282 283 283 283 283 283 282 282 282 282 281 280 281 281 281 282 282 282 281 280 280 280 280 280 280 279 279 278 278 278 277 277 276 276 276 276 277 278 280 282 283 285 286 286 285 285 283 281 282
285 286 285 286 284 282 282 282 283 284 282 282 281 282 282 282 283 283 281 281 280 280 281 281 281 280 281 281 281 281 281 281 281 281 280 280 280 280 279 278 278 278 278 277 277 277 276 276 276 276 276 277 278 279 281 283 283 284 285 283 282 283
284 285 285 285 285 282 281 281 282 281 281 279 281 281 282 282 282 282 281 280 281 281 281 281 279 280 280 280 280 280 280 280 281 280 280 280 280 279 279 278 278 278 278 278 278 277 276 275 275 275 275 276 276 277 277 278 279 280 281 281 279 279
284 285 284 285 283 281 280 279 279 279 279 280 279 281 281 281 280 281 279 280 280 280 279 280 280 280 280 279 279 278 278 280 280 281 281 281 282 281 280 279 279 279 279 279 278 277 276 275 275 275 278 276 278 276 276 276 277 277 276 279 280 276
283 283 283 284 281 279 279 278 278 277 277 278 278 280 281 280 280 279 279 280 280 280 279 279 279 279 279 279 278 277 277 279 282 281 281 280 282 283 283 282 280 280 280 279 279 279 278 277 277 279 280 279 279 280 279 278 279 279 277 280 282 277
283 282 282 282 279 280 279 278 277 277 277 278 279 281 281 281 281 280 280 280 280 280 280 279 279 278 278 277 277 276 275 275 278 283 282 282 282 283 283 283 283 282 282 280 278 280 282 281 281 281 280 280 280 280 280 280 280 280 280 281 278 274
283 282 282 282 280 280 279 278 277 278 278 279 280 281 281 281 281 280 280 280 279 279 279 278 278 278 277 276 276 276 276 276 275 276 281 282 282 283 283 283 283 283 282 282 280 278 278 282 282 282 281 280 280 280 280 280 280 280 280 280 280 271
283 282 282 281 280 279 278 277 276 275 275 277 279 280 280 280 281 280 279 278 278 278 278 278 278 278 278 277 276 277 277 277 276 274 274 278 281 281 281 282 282 283 283 282 281 281 280 280 281 282 281 281 280 280 280 280 280 280 280 280 275 270
282 282 281 279 278 278 276 276 274 274 275 275 277 278 280 279 279 279 279 278 278 278 278 278 278 279 279 278 278 278 278 277 276 275 274 274 275 276 279 281 281 281 281 281 281 281 281 281 281 281 280 280 280 280 280 279 278 280 280 277 271 271
281 280 279 278 277 276 275 275 273 272 273 275 276 276 276 277 277 276 275 275 276 277 277 278 279 279 279 278 278 277 277 276 276 274 274 274 273 273 273 274 276 279 280 278 279 280 280 280 280 280 280 280 280 280 280 280 277 276 276 275 273 272
279 279 276 276 275 275 274 272 271 270 270 273 275 276 277 277 277 276 275 276 277 278 278 278 279 279 279 278 278 277 276 275 274 273 272 272 272 272 272 273 275 276 278 279 279 279 280 280 280 280 280 280 280 280 280 275 274 275 275 274 274 273
Wind_Speed
8 9 10 9 8 9 9 9 9 9 8 9 10 12 11 11 10 9 8 9 8 8 9 10 9 8 8 7 7 7 8 8 7 8 7 7 8 9 9 9 8 8 8 8 8 8 8 7 8 8 9 9 9 8 9 8 9 9 8 6 8 7
10 9 9 9 10 9 8 8 8 9 9 9 9 8 8 10 11 11 10 10 9 9 8 9 9 9 9 9 8 8 9 9 9 8 8 9 8 9 9 10 10 9 9 8 9 9 8 9 8 9 9 9 9 9 9 8 9 10 10 7 6 6
6 7 6 4 4 5 6 8 10 9 8 9 10 11 10 11 11 11 10 10 10 11 11 10 9 10 9 9 9 9 10 9 9 8 7 7 8 9 10 10 10 9 9 10 10 10 10 9 9 8 9 9 9 8 9 9 9 10 8 9 8 5
5 5 6 5 6 7 8 8 8 9 10 10 10 10 10 10 11 12 11 10 10 11 11 10 9 9 9 10 9 9 9 9 9 7 7 9 8 9 10 10 9 8 9 9 10 10 9 9 9 8 9 10 10 9 7 9 10 10 9 8 9 7
7 6 7 8 9 7 7 7 9 9 9 9 9 11 11 10 10 9 10 10 11 12 11 10 10 10 10 10 9 9 9 8 7 6 9 8 8 7 8 9 9 9 9 8 10 10 9 10 9 8 9 10 11 11 9 9 10 11 11 10 9 9
3 5 7 8 8 8 8 8 7 7 8 9 9 11 11 10 9 9 10 10 11 11 11 11 10 11 11 11 10 10 9 8 7 7 8 8 7 8 7 8 9 9 10 10 10 10 10 10 9 9 9 11 11 11 11 10 9 10 11 11 11 10
4 5 6 9 10 9 8 8 8 8 8 8 10 9 9 9 8 10 10 10 11 11 12 12 11 12 12 12 10 11 10 9 8 7 8 8 9 8 8 7 7 9 10 11 11 11 11 11 11 10 9 8 9 11 11 10 9 10 10 11 11 10
6 6 7 7 8 9 10 10 9 9 8 9 8 8 8 9 7 10 11 10 11 12 13 13 12 13 13 12 11 11 11 10 9 8 8 9 10 9 9 10 9 10 10 9 10 11 12 11 11 11 11 11 10 9 9 9 9 9 9 9 9 9
10 10 9 9 7 7 8 9 10 9 9 9 9 9 9 9 8 9 11 11 11 11 13 14 14 13 12 12 12 10 10 10 9 9 10 9 10 11 10 9 10 8 10 9 9 10 11 11 11 11 11 11 11 11 10 10 9 9 8 8 9 8
8 10 11 8 9 8 7 8 9 10 10 11 8 8 8 8 8 9 10 11 12 13 13 13 12 12 12 11 11 11 10 10 10 9 9 9 10 11 11 11 11 8 8 9 9 9 10 11 11 10 10 11 11 11 10 10 10 9 8 8 9 9
10 8 7 9 8 10 11 9 9 8 8 8 8 8 10 8 8 9 10 10 13 14 12 10 10 10 11 11 11 11 11 11 10 10 10 10 10 9 9 9 10 10 10 9 9 10 9 11 11 10 11 12 11 10 11 11 12 12 11 10 9 8
9 8 9 9 12 13 11 11 10 11 11 11 10 10 9 9 10 10 10 12 14 10 9 9 9 10 10 12 13 12 12 11 11 11 11 11 10 9 9 9 10 11 12 11 10 9 9 9 8 11 17 13 13 13 11 10 10 10 10 11 10 8
8 7 10 12 14 15 13 12 11 9 9 10 9 10 10 10 10 10 11 14 11 9 8 9 10 10 12 13 12 11 12 12 11 11 11 10 10 11 11 11 11 11 10 11 11 11 10 9 8 16 16 16 15 11 11 11 11 10 10 10 11 10
6 9 11 12 13 12 10 10 10 9 12 11 10 10 7 9 10 12 13 12 9 10 11 11 10 11 11 11 13 13 12 11 10 11 11 11 11 10 9 12 13 12 11 10 11 11 10 9 11 14 15 16 17 13 12 10 10 10 10 10 10 9
8 7 8 7 9 9 11 11 8 11 13 10 10 6 8 10 11 11 11 11 11 11 11 10 11 11 11 12 11 10 10 11 10 11 11 12 11 10 12 12 12 12 11 11 12 11 9 7 12 13 14 16 17 16 12 9 10 9 10 10 10 10
5 4 5 6 8 9 9 8 11 11 8 8 7 10 10 11 10 11 12 11 11 12 11 11 11 11 11 9 9 9 10 11 13 11 9 9 9 11 11 10 12 11 12 12 12 11 10 9 13 16 16 17 17 17 12 9 11 10 10 11 11 10
5 5 5 6 6 5 4 5 7 5 5 7 8 9 11 11 11 12 12 13 12 11 11 12 12 12 11 10 10 10 11 12 10 10 10 10 11 11 12 12 12 12 10 11 11 10 10 10 15 16 16 16 18 18 12 8 9 8 9 9 8 9
3 4 5 5 4 4 5 7 5 6 8 6 9 9 9 10 10 11 10 10 10 11 11 11 11 10 10 11 11 12 12 12 12 12 10 9 8 8 7 7 7 9 9 8 9 11 11 9 18 18 18 18 19 19 10 9 9 8 7 8 9 8
1 3 3 4 4 4 5 5 5 6 5 6 8 8 8 8 10 12 11 10 10 11 11 11 12 11 12 12 13 14 14 13 12 10 8 9 9 10 10 10 9 8 9 10 9 11 11 9 18 22 21 20 22 16 8 8 8 8 8 8 8 7
2 3 2 5 5 5 4 4 5 6 6 7 6 7 8 10 13 11 10 11 11 11 11 12 12 13 13 13 15 14 11 10 8 10 10 12 11 11 10 9 8 8 10 12 12 13 11 10 15 20 19 21 23 14 12 9 9 8 8 6 6 5
3 4 4 4 6 6 2 4 5 5 7 7 7 7 9 12 12 10 12 12 10 9 10 11 11 12 13 13 13 11 12 12 12 9 9 9 9 10 9 9 10 9 8 9 10 12 11 7 11 17 16 18 19 14 9 9 8 9 7 7 6 5
4 5 6 6 6 5 2 3 4 6 7 7 5 7 11 14 11 8 7 6 8 8 9 9 11 11 12 12 11 10 11 8 8 9 10 8 8 9 9 9 9 10 9 8 8 9 9 9 7 12 17 17 18 15 9 8 9 9 9 7 7 7
3 5 6 6 5 5 2 2 4 6 7 5 6 11 13 7 5 6 6 6 7 8 9 8 10 11 10 10 10 9 8 8 9 9 10 10 8 8 8 10 9 9 8 7 8 8 7 7 9 12 19 18 19 19 14 10 10 9 9 8 8 7
5 6 6 6 5 4 3 3 5 7 6 6 10 13 5 4 5 5 6 7 7 7 8 8 8 9 8 7 8 8 8 7 8 9 9 8 8 9 9 8 8 7 7 6 7 7 7 7 12 10 19 22 22 20 17 9 9 9 9 8 7 7
5 6 6 6 4 3 4 4 7 7 6 8 12 5 3 5 5 5 6 6 6 6 7 7 9 8 7 8 10 10 9 8 8 7 8 8 8 9 9 9 8 8 7 6 5 6 7 7 8 10 10 17 20 20 18 13 7 13 8 8 8 9
5 6 6 5 4 4 5 6 8 7 7 12 5 3 4 4 4 5 5 5 5 5 6 7 8 8 8 10 9 9 9 8 8 8 8 8 8 8 8 7 7 7 7 8 6 5 6 6 8 10 12 13 19 18 19 18 14 14 9 8 7 6
6 6 7 6 5 5 6 5 7 7 9 5 2 4 4 4 4 4 5 5 5 6 5 6 7 7 7 8 9 9 8 8 8 8 7 8 7 7 8 7 7 8 7 7 7 6 5 5 6 7 10 13 17 21 19 20 20 18 14 8 6 6
5 5 8 9 5 6 5 6 6 8 7 2 3 4 5 5 5 5 5 4 5 5 6 7 5 5 6 7 7 8 9 10 10 9 8 8 8 8 8 8 8 7 7 7 7 7 7 6 5 6 6 7 9 12 19 20 19 17 16 11 7 9
6 8 8 10 5 4 5 5 6 8 4 4 4 4 5 5 6 5 5 6 6 5 7 8 7 6 6 6 6 6 7 7 7 7 8 8 8 7 7 7 8 8 8 8 8 7 7 7 7 7 7 7 7 7 8 10 11 13 13 9 7 9
7 10 9 11 9 4 5 5 6 5 5 4 5 5 5 6 6 7 6 7 7 7 7 7 9 9 7 6 7 7 6 5 6 8 9 10 10 10 9 9 9 9 9 9 8 7 7 7 7 8 9 9 8 8 7 7 6 7 7 7 6 7
8 10 9 12 7 4 5 6 5 5 5 5 5 6 6 6 5 6 6 7 7 7 6 7 7 7 7 6 5 4 2 6 7 7 4 2 4 6 9 9 7 7 7 7 9 9 8 7 9 11 9 10 12 11 9 9 9 7 6 7 9 7
7 9 10 11 6 5 6 6 5 5 5 5 5 6 7 6 6 6 6 7 7 7 7 7 7 7 7 7 7 7 6 7 7 4 5 5 6 7 5 7 7 8 8 8 7 8 10 11 10 10 17 17 17 17 15 12 12 11 8 10 15 9
7 7 10 9 5 6 5 5 5 4 4 5 5 6 7 7 7 6 6 7 7 8 8 8 8 7 7 7 8 7 8 6 6 7 8 6 6 7 9 9 8 10 10 8 7 6 7 5 9 16 18 18 18 18 17 15 15 16 15 16 10 7
8 8 11 7 5 6 5 5 5 5 4 4 5 6 7 8 8 7 7 7 7 8 8 8 8 8 8 8 8 8 8 8 8 6 7 9 9 9 9 9 10 12 13 12 9 7 5 10 14 17 18 19 19 18 17 16 17 17 17 19 13 7
8 7 7 6 6 5 5 5 5 4 4 4 4 5 7 7 7 7 6 6 7 7 8 8 8 9 9 10 9 9 9 9 8 11 8 6 9 10 9 9 9 11 12 14 13 12 9 9 12 15 16 17 17 17 16 16 16 16 17 18 10 7
7 7 7 6 5 6 5 5 4 3 4 4 4 4 6 6 6 7 7 7 8 8 8 8 8 9 8 8 7 7 7 7 8 8 9 9 7 6 6 8 10 10 11 12 13 12 13 13 13 14 15 16 16 16 17 15 11 15 18 13 7 8
7 6 5 5 5 4 4 4 3 2 2 2 3 4 4 4 5 5 7 10 7 6 6 5 6 7 7 8 8 9 8 8 7 8 9 9 10 9 8 6 6 8 9 7 8 11 13 13 14 14 14 16 16 17 18 17 10 11 10 9 6 6
6 6 3 3 3 3 2 2 0 1 2 2 2 4 5 5 5 6 6 6 8 7 7 7 6 7 7 8 7 7 7 5 7 7 6 5 5 6 7 5 4 5 7 11 9 12 13 14 14 14 15 15 17 18 20 10 8 8 8 7 7 7
Wind_Direction
193 193 197 195 189 185 183 177 176 180 185 186 185 189 188 183 181 182 184 181 183 187 185 180 184 186 188 189 180 177 184 187 192 190 179 152 152 151 153 156 160 162 159 154 153 150 149 147 148 145 142 141 136 137 134 139 133 131 132 140 132 134
191 190 196 197 190 183 177 174 174 183 184 183 189 192 187 178 179 179 184 182 180 184 183 184 182 185 188 188 184 186 189 191 193 190 170 170 164 164 160 162 165 165 162 159 154 152 151 151 154 150 145 141 142 142 138 146 137 136 138 138 131 131
194 187 188 210 208 180 175 179 184 184 184 189 186 190 194 189 185 180 184 176 183 181 186 183 180 186 188 190 191 190 193 195 196 192 179 156 171 162 164 167 169 168 167 159 157 156 156 156 156 153 146 142 142 143 143 144 143 138 139 134 129 123
193 194 173 175 185 194 189 188 182 189 194 190 185 189 198 196 193 187 180 181 181 185 185 184 182 185 186 190 191 193 193 196 195 180 159 174 176 171 170 170 168 166 166 162 158 156 156 157 154 152 147 146 144 146 149 147 145 141 139 136 136 138
180 189 190 185 189 194 193 192 194 197 196 190 192 192 200 197 197 188 183 182 184 187 182 180 183 184 191 192 194 196 194 194 190 173 171 175 172 178 174 169 166 166 164 165 160 156 157 159 157 157 152 153 152 152 155 155 152 150 148 146 148 147
199 180 192 194 193 193 198 201 201 202 201 198 196 202 198 194 188 185 186 185 187 184 181 185 182 184 190 195 196 197 197 194 189 176 177 172 167 175 176 168 167 166 167 167 166 161 158 160 160 157 159 157 156 156 156 158 158 155 152 151 153 154
204 239 229 208 197 192 192 196 202 204 208 199 205 207 199 197 186 183 188 189 186 185 186 187 184 188 191 194 195 198 197 197 188 179 178 168 172 176 170 173 168 169 172 173 170 164 165 166 162 159 157 157 159 159 157 159 158 158 156 157 157 156
201 218 230 242 224 200 193 194 196 203 207 210 203 202 199 200 187 188 186 190 191 192 190 189 188 193 191 192 194 195 196 193 187 180 182 177 175 175 179 174 176 176 177 177 176 169 167 167 165 163 162 159 157 158 158 158 159 157 153 152 155 155
206 211 217 223 238 225 208 198 195 199 206 212 206 200 196 197 186 189 190 192 197 197 198 192 193 189 190 190 190 189 192 193 187 180 184 181 179 178 178 181 178 181 175 177 175 175 169 167 166 163 162 159 160 161 161 160 156 152 149 149 151 154
225 216 210 206 220 228 224 215 205 200 202 210 204 195 192 194 187 191 194 192 200 206 204 199 190 187 188 185 185 187 190 189 186 185 183 180 185 184 182 180 178 175 177 180 179 176 170 168 169 165 162 162 163 164 164 160 154 148 146 148 154 158
228 222 208 208 209 218 220 215 215 209 211 210 199 191 197 184 185 196 197 199 206 211 205 197 193 187 182 180 183 185 186 186 184 182 183 187 190 187 183 178 175 172 179 181 179 176 176 175 176 170 166 163 164 163 161 163 163 160 155 151 153 159
228 210 203 206 209 215 215 214 213 211 209 213 204 191 193 175 195 195 201 207 212 207 199 199 195 190 183 183 188 187 183 183 182 180 186 190 188 182 178 178 180 183 183 178 179 180 178 182 180 177 172 168 167 169 167 164 163 158 155 154 154 157
231 212 202 210 212 214 213 212 213 210 213 217 204 202 193 180 193 199 204 214 211 197 194 197 201 190 193 192 185 186 184 184 182 182 186 187 184 184 182 178 184 190 184 183 181 180 184 183 181 177 175 173 165 157 160 163 166 164 159 159 160 162
233 215 215 218 219 217 214 215 213 202 216 212 205 204 180 187 195 202 210 214 202 198 198 201 197 197 199 191 193 187 184 181 182 185 185 185 186 187 179 188 192 186 184 183 184 187 186 185 181 177 170 167 164 163 164 165 162 164 165 162 161 159
247 244 240 237 232 225 220 213 202 210 216 205 206 165 178 196 201 205 211 210 204 204 202 196 197 200 198 200 194 186 180 182 185 188 188 189 187 178 187 195 188 191 186 184 185 186 184 187 179 172 162 165 169 166 156 167 164 162 166 164 161 161
276 267 250 244 242 230 227 204 207 218 205 192 176 180 195 197 204 204 211 209 207 205 201 197 196 200 202 195 191 186 183 185 192 192 186 181 182 190 191 191 196 191 189 187 184 182 181 179 180 173 170 169 167 164 159 165 166 168 164 163 166 167
286 306 308 289 260 246 206 211 213 204 178 185 189 196 199 200 202 205 207 207 206 200 200 198 195 198 196 192 190 190 193 193 192 186 185 184 187 189 191 190 191 195 192 187 184 182 181 185 180 175 166 165 166 166 155 159 159 162 167 167 164 163
279 276 277 271 265 243 197 217 193 180 204 184 194 198 200 199 206 215 214 215 207 206 204 197 195 193 190 192 193 194 196 196 193 189 183 183 187 191 190 199 196 192 190 186 182 182 185 179 177 173 170 166 168 163 158 163 163 161 160 159 165 165
311 293 289 302 291 255 233 217 177 188 185 191 206 199 201 201 212 216 212 208 204 205 199 196 195 194 193 193 193 197 197 192 189 186 176 182 184 187 190 190 187 182 180 182 186 187 187 183 183 178 174 171 170 160 155 155 156 164 168 169 165 163
356 333 333 302 296 269 238 196 178 174 190 207 205 199 207 207 219 215 206 209 207 203 197 197 196 197 196 194 198 198 195 188 185 185 178 183 183 188 186 181 185 188 188 186 188 190 190 187 185 179 173 171 170 160 161 162 162 163 162 162 162 154
326 303 317 315 297 294 243 179 167 175 206 212 207 203 212 221 224 211 210 213 204 199 196 195 196 199 198 200 200 192 188 188 188 180 176 183 181 186 180 184 186 189 192 195 192 185 182 177 185 179 174 173 170 159 162 159 160 161 164 161 166 168
340 326 316 303 282 282 249 164 167 201 217 221 203 209 223 227 224 218 216 208 200 198 196 194 196 197 195 197 190 187 188 175 169 173 176 180 181 181 181 182 183 184 187 179 181 184 181 172 175 173 173 179 177 165 159 165 155 169 172 175 172 175
293 273 275 277 281 285 232 167 190 226 232 221 209 228 232 233 221 212 209 203 199 197 196 193 192 193 195 190 184 176 171 171 173 170 175 179 181 178 178 180 181 180 176 170 173 175 173 155 155 174 181 184 182 173 166 176 180 171 166 170 178 187
307 301 297 281 278 264 219 192 219 237 236 224 232 238 241 217 213 203 202 200 201 196 190 188 188 185 178 166 156 163 173 175 170 173 175 175 175 177 178 175 176 172 166 162 164 168 163 160 166 176 187 186 186 182 176 171 180 168 162 169 184 186
287 280 272 278 263 232 222 202 231 241 238 235 244 248 228 214 202 196 197 198 194 191 185 179 172 168 160 166 169 168 170 165 167 167 166 169 171 173 172 172 169 164 160 150 154 156 160 159 168 172 178 189 191 189 185 177 162 176 172 176 188 193
271 278 278 272 244 217 212 202 232 240 240 248 258 227 206 194 188 181 184 187 183 173 174 170 171 166 165 167 162 162 157 160 160 158 166 169 169 170 170 170 163 157 156 160 156 156 159 162 159 176 174 184 188 192 192 194 188 183 187 186 194 180
260 267 274 263 244 223 215 205 221 241 245 254 204 200 177 172 163 166 176 171 164 163 160 156 162 161 159 159 157 155 155 152 152 159 165 162 166 168 170 170 167 169 166 159 162 158 157 159 163 171 182 185 192 195 197 201 203 200 187 185 185 172
251 263 274 278 242 236 216 217 206 231 242 222 200 180 167 156 156 167 173 159 152 151 144 144 140 143 147 150 158 160 162 161 165 165 164 165 170 170 169 167 165 164 163 169 169 170 168 166 163 176 182 196 201 205 208 209 211 209 202 186 172 167
289 283 274 281 262 225 230 219 225 231 238 219 190 166 156 159 164 169 157 148 142 141 147 145 146 141 143 145 142 146 151 154 155 156 159 166 166 165 165 163 167 172 174 177 180 171 167 176 185 188 190 194 195 204 210 211 214 207 201 192 178 181
269 276 281 276 274 236 232 225 232 230 217 201 175 161 156 166 170 168 165 153 148 151 152 149 147 145 147 149 147 146 145 154 160 163 170 175 175 172 177 175 178 180 180 179 169 166 168 183 188 193 191 190 189 192 194 202 196 196 193 188 167 162
261 265 273 272 274 249 232 232 231 216 197 191 174 161 163 173 169 158 152 150 143 148 147 144 147 145 140 132 113 90 113 160 170 169 163 144 165 175 170 170 175 177 179 172 173 171 181 183 200 208 186 187 188 183 181 191 195 187 178 170 153 138
245 260 263 268 271 250 240 236 223 208 196 178 174 165 166 165 155 152 157 154 151 148 141 137 138 135 137 133 127 115 80 62 91 126 153 152 144 142 157 172 180 178 170 175 190 183 182 194 205 176 183 189 191 192 189 186 183 182 168 170 169 145
257 257 265 265 257 246 241 237 225 208 198 179 176 170 168 158 159 160 160 156 157 156 149 145 142 143 135 135 134 131 124 101 64 103 119 121 134 147 158 170 161 162 173 172 173 184 188 167 162 172 181 184 188 187 185 181 182 182 179 179 166 151
272 259 260 261 241 240 235 231 228 213 206 190 180 172 165 168 162 169 170 163 155 151 148 145 145 142 140 144 145 143 141 131 120 71 97 116 124 130 133 150 164 172 174 169 151 142 154 165 164 167 174 179 181 182 180 178 178 178 177 185 160 148
272 265 260 251 234 228 224 223 233 229 219 201 184 173 172 176 167 162 159 154 151 151 150 150 152 154 151 153 154 158 156 151 144 134 121 107 113 124 131 129 134 149 159 153 153 150 151 151 155 162 167 171 173 173 174 172 173 173 172 173 166 168
271 264 257 247 232 222 213 217 227 226 229 214 193 185 180 173 165 155 158 161 160 155 159 159 161 159 159 153 152 151 151 149 148 147 142 137 132 121 126 135 141 145 147 150 149 150 148 149 151 151 155 159 162 163 163 161 164 169 175 170 160 171
271 267 253 241 232 219 214 216 228 249 266 235 190 165 159 156 142 136 138 144 146 153 155 158 158 156 153 157 159 159 158 158 158 152 156 159 157 154 152 156 149 148 143 144 149 153 152 153 153 153 153 155 157 159 159 155 156 165 174 173 174 175
270 270 261 234 230 227 220 218 353 342 320 293 192 160 157 149 142 139 144 153 153 150 160 162 166 163 163 163 161 154 147 144 143 149 148 133 128 134 136 136 144 144 148 141 141 152 155 157 158 159 160 161 163 163 161 160 172 169 178 170 172 175